NOAA 17 DEB, 48745

Orbit data source: Space-Track

NOAA 17 DEB, 48745 is space debris in SSO originally from a launch on Mon, 24 Jun 2002 UTC launched from the Air Force Western Test Range (AFWTR). Debris objects in space refer to the collection of defunct objects orbiting the Earth. Examples of debris include non-operational satellites, rocket bodies, and fragments generated from explosions, collisions, or faulty payload assembly.

Loading next visibility...
Identifier
48745, 2002-032CE
Orbit
SSO
Country
Flag of USUS
Related business
Manufacturer
Unknown
Mission
Spacecraft
Bus & Motor
Unknown
Mass
Unknown
Launch date (UTC)
2002-06-24 (23 years ago)
Launch vehicle
Unknown
Launch site
Air Force Western Test Range (AFWTR)
Object type
Payload
Rocket body
Debris
Shape & HBR
Unknown shape, 0.1 m
Radar Cross Section
Small (<0.1 m²)

Expand to show TLE details & history
Last TLE update: 20 hours ago

TLE from 20 hours ago
0 NOAA 17 DEB
1 48745U 02032CE  25349.16327172  .00033312  00000-0  26899-2 0  9995
2 48745  98.8559  61.8732 0020221 170.8703 189.2889 14.99597066250642
Epoch: 2025-12-15T03:55Z
TLE epoch observation values (Epoch: 2025-12-15T03:55:06.676Z)
Latitude
0.00004°
Longitude
-80.9704°
Altitude
585.024 km
Speed
7.56 km/s
True Right ascension
04h 07m 29s
True Declination
0° 00' 00"
Sunlit
Object was in full shadow at epoch
Visualization orbit readout
Latitude
Unknown
Longitude
Unknown
Altitude
Unknown
Speed
Unknown
Apparent Right ascension
Unknown
Apparent Declination
Unknown
Sunlit
N/A
Visualization observer readout
Local Sidereal Time
22:46:59
Azimuth
Unknown
Elevation
Unknown
Doppler factor
Unknown
Orbital elements
Apogee altitude
579.241 km
Perigee altitude
551.161 km
Semi-major axis
6,943.338 km
Eccentricity
0.00202
Inclination
98.8559°
RAAN
61.8732°
Arg. of periapsis
170.8703°
True anomaly
189.25159°
Mean anomaly
189.2889°
Eccentric anomaly
189.27024°
Mean motion
3.75138 °/min
Orbital period
95.96 mins
BSTAR
0.0026899
Loading maneuver chart data...
Computing Atmospheric mass density...

Documentation

Showing up to 5 results
|